Temp
5 5 5 5 5 4 4 4 4 4 4 4 4 3 3 3 3 3 3 3 3 3 3 3 3 3 3 3 3 4 4 4 4 4 4 4 4 4 4 4 4 4 4 4 5 5 5 5 4 5 5 5
5 5 5 5 4 4 4 4 4 4 4 4 3 3 3 3 3 3 3 3 3 3 3 3 3 3 3 3 3 3 3 4 4 4 4 4 4 4 4 4 4 4 4 4 4 4 4 4 4 5 5 5
5 5 5 4 4 4 4 4 4 4 3 3 3 3 3 3 3 3 3 3 3 3 3 3 3 3 3 3 3 3 3 3 3 3 3 3 3 3 3 4 4 4 4 4 4 4 4 4 4 4 4 4
5 5 4 4 4 4 4 3 3 3 3 3 3 3 3 3 3 3 3 3 3 3 3 3 3 3 3 3 3 3 3 3 3 3 3 3 3 3 3 3 3 3 3 3 3 4 4 4 4 4 4 4
5 5 4 4 4 4 3 3 3 3 3 3 3 3 3 3 3 3 3 2 2 3 3 3 3 2 2 2 2 2 2 2 2 2 2 3 3 3 3 3 3 3 3 3 3 3 3 4 4 4 4 4
5 4 4 4 3 3 3 3 3 3 3 3 3 2 2 2 3 2 2 2 2 2 2 2 2 2 2 2 2 2 2 2 2 2 2 3 3 3 3 3 3 3 3 3 3 3 3 3 3 3 4 4
4 4 4 4 3 3 3 3 3 3 3 2 2 2 2 2 2 2 2 2 2 2 2 2 2 2 2 2 2 2 2 2 2 3 3 3 3 3 3 3 3 3 3 3 3 3 3 3 3 3 3 3
4 4 4 3 3 3 3 3 3 2 2 2 2 2 2 2 2 2 2 2 2 2 2 2 2 2 2 2 2 2 2 3 3 3 3 3 3 3 3 3 3 3 3 3 3 3 3 3 3 3 3 3
4 4 4 3 3 3 3 3 2 2 2 2 2 2 2 2 2 2 2 2 2 2 2 2 2 2 2 2 2 2 3 3 3 3 3 3 3 3 3 3 3 3 3 3 3 3 3 3 3 3 3 3
4 3 3 3 3 3 3 2 2 2 2 2 2 2 2 2 2 2 2 2 1 1 1 1 1 2 2 2 2 2 2 2 3 3 3 3 3 3 3 3 3 3 3 3 3 3 3 3 3 3 3 3
4 3 3 3 3 3 2 2 2 2 2 2 2 2 2 2 1 1 1 1 1 1 1 1 1 2 2 2 2 2 2 2 2 2 2 2 2 2 2 2 2 2 2 3 3 3 3 3 3 3 3 3
3 3 3 3 3 2 2 2 2 2 2 2 2 1 1 1 1 1 1 1 1 1 1 1 1 2 2 2 2 2 2 2 2 2 2 2 2 2 2 2 2 2 2 2 2 2 2 2 2 2 3 3
3 3 3 3 2 2 2 2 2 2 2 2 1 1 1 1 1 1 1 1 1 1 1 1 1 2 2 2 2 2 2 2 2 2 2 2 2 2 2 2 2 1 1 1 1 2 2 2 2 2 2 2
3 3 3 3 2 2 2 2 2 2 1 1 1 1 1 1 1 1 1 1 1 1 1 1 1 1 2 2 2 2 2 2 2 2 2 2 2 2 1 1 1 1 1 1 1 1 1 1 1 1 1 2
3 3 3 2 2 2 2 2 2 1 1 1 1 1 1 1 1 1 1 1 1 1 1 1 1 1 1 1 1 1 1 1 1 1 1 1 1 1 1 1 1 1 1 1 1 0 0 0 0 0 1 1
3 3 3 3 2 2 2 2 1 1 1 1 1 1 1 1 1 1 1 0 0 0 1 1 1 1 1 1 1 1 1 1 1 1 1 1 1 1 1 1 1 1 1 0 0 0 0 0 -0 -0 -0 0
3 3 3 3 2 2 2 2 1 1 1 1 1 1 1 1 1 1 1 0 0 0 0 0 0 0 0 0 0 0 0 0 0 0 0 0 0 0 0 0 0 0 0 0 0 -0 -0 -0 -0 -0 -0 -0
3 2 2 2 2 2 2 2 1 1 1 1 1 1 1 1 0 0 0 0 0 0 0 0 -0 0 0 -0 -0 -0 -0 -0 -0 -0 -0 -0 -1 -1 -0 -0 -0 -0 -0 -0 -0 -0 -0 -0 -1 -1 -1 -1
3 2 2 2 2 2 2 1 1 1 1 1 1 1 0 0 0 0 0 0 0 0 0 -0 -0 -0 -0 -1 -1 -1 -1 -1 -1 -1 -1 -1 -1 -1 -1 -1 -1 -1 -1 -1 -1 -1 -1 -1 -1 -1 -1 -1
2 2 2 2 2 2 2 1 1 1 1 1 1 1 1 0 0 0 0 -0 -0 -0 -0 -0 -0 -1 -1 -1 -1 -1 -1 -1 -1 -1 -1 -1 -1 -1 -1 -2 -2 -2 -2 -2 -1 -1 -1 -1 -1 -1 -2 -1
2 2 2 2 2 2 1 1 1 1 1 1 1 1 1 0 0 -0 -0 -0 -0 -1 -1 -1 -1 -1 -1 -1 -2 -2 -2 -2 -2 -2 -2 -2 -2 -2 -2 -2 -2 -2 -2 -2 -2 -2 -2 -2 -2 -2 -2 -2
2 2 2 2 1 1 1 1 1 1 1 1 1 1 1 0 -0 -0 -0 -1 -1 -1 -1 -1 -1 -1 -1 -2 -2 -2 -2 -2 -2 -2 -2 -2 -2 -2 -2 -2 -2 -2 -2 -2 -2 -2 -2 -2 -2 -2 -2 -2
2 2 1 1 1 1 1 1 1 0 1 1 0 0 0 0 -0 -0 -0 -1 -1 -1 -1 -1 -1 -1 -2 -2 -2 -2 -2 -2 -2 -2 -2 -2 -2 -3 -3 -3 -3 -3 -3 -3 -3 -3 -3 -2 -3 -3 -3 -3
2 2 1 1 1 1 2 1 1 1 1 1 0 0 0 0 -0 -0 -0 -1 -1 -1 -1 -1 -1 -1 -1 -2 -2 -2 -2 -2 -2 -2 -2 -3 -3 -3 -3 -3 -3 -3 -3 -3 -3 -3 -3 -3 -4 -4 -4 -4
3 2 2 2 2 2 2 2 1 1 1 1 1 0 0 0 -0 0 -0 -0 -1 -1 -1 -1 -1 -1 -2 -2 -2 -2 -2 -2 -2 -3 -3 -3 -3 -3 -3 -4 -4 -4 -4 -4 -4 -4 -4 -4 -4 -4 -5 -5
3 3 3 3 2 2 2 1 1 1 1 1 0 0 0 0 0 0 0 -0 -1 -1 -1 -1 -1 -1 -2 -2 -2 -2 -2 -2 -3 -3 -3 -3 -3 -4 -4 -4 -4 -4 -4 -5 -5 -4 -4 -4 -4 -4 -5 -6
4 3 3 3 2 2 1 1 1 1 1 0 0 -0 0 1 0 0 0 -0 -1 -1 -1 -1 -1 -2 -2 -2 -2 -2 -3 -3 -3 -3 -3 -3 -4 -4 -4 -5 -5 -5 -5 -5 -5 -5 -6 -5 -5 -5 -5 -6
4 3 2 2 2 1 1 0 0 0 -0 -0 -0 0 1 1 1 1 0 -0 -1 -1 -1 -2 -2 -2 -2 -2 -2 -3 -3 -3 -3 -3 -3 -4 -4 -4 -5 -5 -5 -6 -6 -6 -6 -6 -7 -7 -7 -7 -6 -6
3 3 2 2 1 0 -0 -0 -1 -1 -0 0 0 1 2 2 2 1 0 -0 -1 -1 -1 -2 -2 -2 -2 -2 -3 -3 -3 -3 -3 -3 -3 -4 -4 -4 -5 -5 -6 -6 -6 -6 -7 -7 -7 -7 -8 -8 -7 -7
4 3 3 2 1 1 1 0 0 1 1 1 1 2 2 2 2 1 0 -0 -1 -1 -2 -2 -2 -2 -2 -2 -3 -3 -3 -3 -3 -3 -4 -4 -4 -5 -5 -5 -6 -6 -7 -7 -7 -7 -7 -7 -8 -8 -8 -8
4 4 3 3 2 2 2 2 2 2 2 1 1 1 1 1 1 1 0 -0 -1 -1 -2 -2 -2 -2 -2 -2 -2 -3 -3 -3 -3 -4 -4 -4 -5 -5 -5 -5 -6 -6 -7 -7 -7 -8 -8 -8 -8 -8 -9 -9
Height
1573 1573 1573 1574 1574 1574 1575 1575 1575 1575 1574 1574 1574 1574 1574 1574 1574 1574 1573 1573 1573 1573 1573 1572 1572 1572 1572 1572 1572 1572 1572 1571 1571 1571 1571 1570 1570 1570 1570 1569 1569 1569 1569 1569 1569 1569 1569 1568 1568 1568 1568 1567
1572 1573 1573 1573 1574 1574 1574 1574 1574 1574 1574 1574 1574 1574 1574 1574 1573 1573 1573 1573 1573 1572 1572 1572 1572 1572 1572 1571 1571 1571 1571 1571 1571 1571 1570 1570 1570 1569 1569 1569 1569 1569 1569 1569 1569 1568 1568 1568 1568 1568 1567 1567
1572 1572 1573 1573 1573 1573 1573 1574 1573 1573 1573 1573 1573 1573 1573 1573 1573 1573 1572 1572 1572 1572 1572 1572 1572 1571 1571 1571 1571 1571 1570 1570 1570 1570 1570 1570 1570 1569 1569 1569 1568 1568 1568 1568 1568 1568 1568 1567 1567 1567 1567 1566
1571 1572 1572 1572 1573 1573 1573 1573 1573 1573 1573 1573 1573 1572 1572 1572 1572 1572 1572 1572 1572 1572 1571 1571 1571 1571 1571 1571 1570 1570 1570 1569 1569 1569 1569 1569 1569 1569 1568 1568 1568 1567 1567 1567 1567 1567 1567 1567 1567 1566 1566 1566
1570 1571 1571 1572 1572 1572 1572 1572 1573 1573 1572 1572 1572 1572 1572 1571 1571 1571 1571 1571 1571 1571 1571 1571 1570 1570 1570 1570 1570 1570 1569 1569 1569 1568 1568 1568 1568 1568 1568 1567 1567 1567 1567 1566 1566 1566 1566 1566 1565 1565 1565 1565
1569 1570 1570 1571 1571 1571 1571 1571 1572 1572 1572 1572 1571 1571 1571 1571 1571 1571 1570 1570 1570 1570 1570 1570 1570 1570 1569 1569 1569 1569 1569 1568 1568 1568 1567 1567 1567 1567 1567 1566 1566 1566 1565 1565 1565 1565 1565 1565 1564 1564 1564 1564
1568 1569 1569 1569 1570 1570 1570 1570 1570 1571 1571 1571 1570 1570 1570 1570 1570 1570 1570 1570 1570 1569 1569 1569 1569 1569 1569 1568 1568 1568 1567 1567 1567 1567 1566 1566 1566 1566 1566 1565 1565 1565 1565 1564 1564 1564 1564 1563 1563 1563 1563 1563
1567 1567 1568 1568 1568 1569 1569 1569 1569 1569 1569 1569 1569 1569 1569 1569 1569 1569 1569 1569 1569 1569 1568 1568 1568 1568 1568 1567 1567 1567 1566 1566 1566 1565 1565 1565 1565 1564 1564 1564 1564 1564 1564 1563 1563 1562 1562 1562 1562 1562 1562 1562
1565 1566 1566 1567 1567 1567 1568 1568 1568 1568 1568 1568 1568 1568 1568 1568 1568 1568 1568 1568 1568 1567 1567 1567 1567 1567 1566 1566 1566 1566 1565 1565 1565 1564 1564 1563 1563 1563 1563 1563 1562 1562 1562 1562 1562 1561 1561 1561 1560 1560 1560 1560
1564 1564 1564 1565 1565 1566 1566 1566 1567 1567 1567 1567 1567 1567 1567 1567 1566 1566 1566 1566 1566 1566 1566 1566 1565 1565 1565 1565 1564 1564 1564 1563 1563 1563 1562 1562 1562 1561 1561 1561 1561 1560 1560 1560 1560 1560 1560 1559 1559 1559 1558 1558
1563 1562 1563 1564 1564 1564 1565 1565 1565 1565 1565 1566 1565 1565 1565 1565 1565 1565 1565 1565 1565 1565 1564 1564 1564 1564 1563 1563 1563 1562 1562 1562 1561 1561 1561 1560 1560 1560 1559 1559 1559 1559 1558 1558 1558 1558 1558 1558 1557 1557 1557 1557
1561 1561 1561 1562 1562 1563 1563 1563 1563 1563 1564 1564 1564 1564 1564 1564 1564 1564 1564 1564 1563 1563 1563 1563 1562 1562 1562 1561 1561 1561 1560 1560 1559 1559 1559 1558 1558 1558 1558 1558 1557 1557 1557 1557 1556 1556 1556 1556 1556 1556 1555 1555
1559 1559 1560 1561 1560 1561 1561 1561 1561 1562 1562 1562 1562 1562 1562 1562 1562 1562 1562 1562 1562 1562 1562 1562 1561 1561 1560 1560 1560 1559 1559 1558 1558 1558 1557 1557 1556 1556 1556 1556 1555 1555 1555 1555 1555 1555 1554 1554 1554 1554 1554 1554
1557 1557 1558 1558 1558 1559 1559 1558 1559 1560 1559 1560 1560 1561 1561 1561 1561 1561 1561 1561 1560 1560 1560 1560 1560 1559 1559 1558 1558 1557 1557 1557 1556 1556 1555 1555 1555 1554 1554 1554 1554 1553 1553 1553 1553 1552 1552 1552 1552 1552 1552 1552
1554 1555 1556 1556 1556 1557 1557 1556 1558 1557 1557 1557 1558 1559 1559 1559 1559 1559 1559 1559 1558 1558 1558 1558 1557 1557 1557 1556 1556 1556 1555 1555 1555 1554 1554 1554 1553 1553 1552 1552 1552 1552 1551 1551 1551 1551 1550 1550 1550 1550 1550 1550
1552 1553 1553 1553 1554 1555 1554 1555 1555 1555 1555 1555 1555 1556 1556 1556 1556 1556 1557 1557 1557 1556 1556 1556 1555 1555 1555 1555 1554 1554 1554 1553 1553 1553 1552 1552 1551 1551 1551 1550 1550 1550 1549 1549 1549 1549 1549 1549 1548 1548 1548 1548
1550 1550 1550 1551 1552 1552 1552 1553 1553 1552 1553 1552 1553 1554 1554 1554 1554 1554 1555 1555 1555 1555 1554 1554 1554 1554 1553 1553 1553 1552 1552 1552 1551 1551 1551 1550 1550 1549 1549 1548 1548 1548 1548 1548 1547 1547 1547 1547 1547 1546 1546 1546
1548 1547 1548 1549 1549 1549 1550 1551 1551 1550 1550 1550 1551 1552 1552 1552 1552 1552 1553 1553 1553 1552 1552 1552 1552 1552 1552 1551 1551 1551 1550 1550 1550 1549 1549 1549 1548 1548 1547 1547 1546 1546 1546 1546 1546 1545 1545 1545 1545 1545 1544 1544
1545 1545 1545 1547 1546 1546 1548 1548 1548 1548 1547 1548 1548 1549 1550 1550 1550 1550 1550 1550 1550 1550 1550 1550 1550 1550 1549 1549 1549 1549 1548 1548 1548 1547 1547 1547 1547 1546 1545 1545 1545 1544 1544 1544 1543 1543 1543 1543 1543 1543 1543 1542
1542 1542 1543 1544 1544 1543 1545 1545 1545 1545 1545 1545 1545 1546 1547 1547 1547 1548 1548 1548 1548 1547 1547 1547 1547 1547 1547 1547 1547 1547 1546 1546 1546 1546 1545 1545 1545 1544 1543 1543 1543 1542 1542 1541 1541 1541 1541 1541 1541 1541 1541 1540
1539 1539 1539 1540 1541 1541 1542 1542 1542 1542 1542 1542 1542 1542 1544 1545 1545 1545 1545 1545 1545 1545 1545 1544 1544 1545 1545 1544 1544 1544 1544 1544 1544 1543 1543 1543 1542 1542 1541 1541 1540 1540 1540 1539 1539 1539 1538 1539 1539 1539 1539 1538
1536 1536 1536 1537 1537 1538 1538 1539 1539 1539 1539 1539 1540 1540 1540 1542 1542 1542 1543 1543 1542 1542 1542 1542 1542 1543 1543 1542 1542 1542 1542 1542 1542 1542 1541 1541 1540 1540 1540 1539 1538 1538 1538 1537 1537 1536 1536 1536 1536 1535 1535 1536
1533 1533 1533 1533 1534 1534 1534 1535 1536 1536 1535 1536 1537 1537 1537 1538 1539 1539 1540 1540 1539 1540 1540 1540 1540 1540 1540 1540 1540 1540 1540 1540 1540 1540 1539 1539 1539 1538 1538 1537 1536 1536 1536 1535 1534 1534 1533 1533 1533 1533 1533 1533
1528 1529 1529 1530 1530 1530 1530 1531 1533 1532 1532 1533 1533 1533 1533 1534 1536 1536 1536 1536 1536 1537 1537 1537 1538 1538 1538 1538 1538 1538 1538 1538 1538 1538 1537 1537 1537 1537 1537 1535 1534 1534 1534 1533 1533 1532 1531 1531 1531 1531 1530 1530
1523 1524 1524 1525 1525 1526 1526 1528 1529 1529 1528 1529 1530 1529 1529 1531 1532 1532 1533 1533 1533 1533 1534 1534 1535 1535 1535 1535 1536 1536 1536 1536 1536 1536 1536 1536 1535 1535 1535 1534 1533 1533 1533 1532 1531 1530 1529 1529 1529 1529 1528 1528
1519 1519 1520 1521 1522 1523 1523 1524 1524 1525 1525 1525 1526 1525 1525 1527 1528 1528 1529 1530 1530 1530 1530 1531 1532 1532 1532 1532 1532 1532 1533 1533 1533 1534 1534 1533 1533 1533 1533 1532 1532 1532 1532 1531 1529 1528 1527 1527 1527 1527 1526 1526
1515 1516 1517 1518 1519 1520 1520 1520 1521 1521 1521 1521 1522 1521 1522 1523 1524 1524 1525 1526 1526 1526 1527 1527 1528 1528 1529 1529 1529 1529 1529 1530 1530 1531 1531 1531 1530 1530 1530 1530 1529 1529 1530 1530 1528 1527 1525 1524 1524 1525 1525 1524
1512 1513 1514 1515 1516 1517 1517 1517 1517 1517 1517 1516 1516 1517 1517 1518 1520 1520 1521 1522 1522 1522 1523 1523 1523 1524 1524 1525 1525 1525 1525 1526 1527 1527 1527 1527 1527 1527 1527 1527 1526 1526 1527 1527 1528 1527 1525 1524 1523 1523 1523 1522
1508 1509 1510 1510 1512 1512 1513 1512 1512 1512 1510 1510 1510 1511 1512 1513 1515 1515 1516 1517 1518 1518 1519 1519 1519 1519 1520 1521 1521 1521 1521 1522 1522 1523 1523 1523 1523 1523 1524 1524 1524 1524 1523 1524 1525 1525 1524 1524 1522 1521 1521 1521
1503 1504 1504 1505 1505 1506 1506 1505 1505 1504 1504 1504 1505 1506 1507 1509 1510 1511 1512 1513 1513 1514 1514 1515 1515 1515 1516 1516 1517 1517 1517 1517 1517 1518 1519 1519 1519 1519 1520 1520 1521 1521 1521 1520 1521 1522 1522 1522 1521 1519 1519 1518
1498 1499 1499 1499 1499 1500 1500 1499 1499 1500 1501 1501 1501 1502 1503 1504 1505 1506 1507 1507 1508 1509 1510 1510 1511 1511 1511 1512 1513 1513 1513 1513 1513 1513 1514 1515 1515 1515 1516 1516 1517 1518 1518 1517 1517 1517 1517 1518 1518 1517 1516 1515
Wind_Speed
2 5 6 6 4 2 1 1 1 0 1 1 2 2 2 2 2 2 2 2 2 2 3 4 4 4 4 5 5 5 5 5 6 6 7 7 8 8 9 9 10 10 10 10 10 11 10 10 10 10 10 10
4 6 6 5 3 2 2 2 1 0 0 1 1 1 2 1 1 1 1 1 1 1 2 2 3 3 3 4 4 4 4 4 4 5 6 6 7 8 9 9 9 10 10 10 10 11 11 11 11 11 10 10
7 7 6 5 4 3 3 3 2 2 1 1 1 1 1 1 1 0 0 0 0 1 1 1 2 2 3 3 4 5 5 5 5 5 6 6 7 8 9 9 10 10 10 11 11 10 11 11 11 11 11 10
8 7 6 5 5 4 4 4 3 3 2 2 2 2 2 2 1 1 0 0 1 1 1 1 2 2 2 3 4 5 6 7 7 7 7 7 7 8 8 9 10 10 10 11 11 11 11 11 11 11 11 12
8 7 7 7 6 6 5 5 4 4 3 3 3 3 3 3 2 1 1 0 0 0 1 1 2 2 3 4 4 5 6 7 7 8 8 9 9 9 9 9 10 10 10 11 11 11 11 11 11 11 11 11
10 9 9 8 7 6 5 5 5 5 4 4 4 3 3 3 2 1 2 1 1 1 1 2 3 3 4 4 5 5 6 7 8 8 9 9 10 10 10 10 11 11 11 11 11 11 11 11 12 12 12 12
12 12 10 8 8 7 6 6 6 6 5 5 4 4 3 3 3 1 1 2 2 2 1 2 3 3 4 5 6 7 8 9 9 10 10 11 11 11 11 11 12 12 12 12 13 13 13 12 12 12 13 13
15 13 11 9 9 8 8 7 7 7 6 6 5 5 4 4 3 2 2 2 3 3 3 3 4 5 6 7 8 9 10 11 11 12 12 12 12 12 12 12 12 13 12 13 13 14 14 14 14 14 13 13
15 14 12 11 10 10 9 9 9 8 8 7 7 6 5 4 4 4 3 3 4 4 4 5 6 7 7 9 10 11 11 11 11 11 12 12 12 12 12 12 13 13 13 13 13 13 14 14 14 15 15 14
16 15 13 12 12 11 11 11 11 10 9 8 8 7 6 5 5 5 5 4 5 5 5 6 8 9 10 11 11 11 11 11 11 11 11 11 12 12 12 12 13 13 13 13 13 13 14 14 14 15 15 15
16 15 15 13 13 13 12 12 12 12 11 10 9 8 7 7 6 6 6 6 6 7 7 8 10 11 12 12 12 12 11 11 11 11 11 12 12 12 12 12 12 13 13 13 13 13 13 14 14 14 15 15
16 17 17 14 14 14 14 14 14 13 12 11 10 9 9 8 8 8 8 8 8 9 9 10 12 13 13 13 12 12 12 11 12 12 12 12 12 13 13 13 13 13 13 13 13 13 13 14 14 14 15 15
18 19 17 16 16 16 15 16 15 14 13 13 11 10 10 9 9 9 9 9 10 10 11 12 13 14 13 12 12 12 12 12 12 12 13 13 13 13 14 14 14 14 14 14 14 14 14 14 14 14 14 15
20 20 18 18 19 17 16 18 16 15 16 15 13 11 10 10 10 10 10 10 11 12 13 14 14 14 13 12 12 12 12 13 13 13 13 14 14 15 15 15 15 15 15 15 16 16 15 15 15 15 15 15
22 21 19 20 20 18 19 19 16 17 18 16 15 12 11 12 11 11 11 12 13 14 15 15 14 13 13 13 12 12 13 13 13 13 14 14 15 15 15 16 16 16 16 16 17 17 17 17 17 16 16 16
24 22 22 22 21 20 21 19 18 19 19 18 16 13 13 13 13 13 13 13 14 15 15 15 14 13 13 13 13 13 13 13 13 13 14 14 15 15 16 16 16 17 17 17 17 18 18 18 18 18 18 18
25 24 24 23 22 22 22 20 20 21 20 20 18 15 15 15 14 15 15 14 15 16 15 14 13 13 12 13 12 12 13 13 13 13 13 14 15 15 15 16 16 16 17 17 18 18 18 19 19 19 19 19
26 27 26 24 23 24 23 21 22 22 22 21 19 17 17 16 16 16 16 16 16 16 15 14 13 13 13 12 12 12 13 13 13 13 13 13 14 15 15 15 16 16 16 17 17 17 18 18 19 19 20 20
28 28 27 25 25 26 23 23 24 24 23 22 20 19 18 18 18 17 17 17 17 17 16 14 13 13 13 12 12 12 12 13 13 13 14 13 14 14 15 15 16 16 17 17 17 18 18 18 18 19 19 20
28 28 28 26 26 27 25 24 25 25 25 23 22 22 19 19 19 18 18 18 17 17 15 15 14 13 13 13 13 13 13 13 13 13 14 14 14 15 15 16 16 16 17 17 17 18 18 18 18 18 18 18
29 29 29 28 28 28 27 26 26 26 26 25 25 24 22 20 20 19 19 18 18 16 15 15 14 13 13 13 13 13 13 13 14 14 14 15 16 16 16 17 17 17 17 18 18 18 19 18 18 18 18 18
30 30 30 29 29 30 29 28 28 28 28 28 27 26 24 22 21 20 19 19 18 16 16 15 14 13 13 13 13 13 13 13 13 14 15 15 16 17 17 18 19 18 18 19 19 19 19 19 19 19 19 17
31 32 32 32 31 32 32 31 30 30 31 30 28 27 27 24 22 21 20 20 19 17 16 15 14 13 13 13 13 13 14 14 14 14 15 16 17 18 18 19 20 19 19 19 20 20 20 20 19 19 18 16
34 34 34 34 34 35 35 33 32 32 32 31 29 28 29 26 23 23 22 21 20 19 18 16 15 14 14 14 13 13 14 14 14 14 16 16 17 18 18 19 21 20 20 20 20 20 20 19 19 17 17 17
36 37 37 36 37 37 36 34 33 33 33 32 30 30 30 27 25 25 24 23 22 21 20 18 17 16 15 15 14 14 14 14 14 14 15 16 17 18 18 19 21 20 20 20 20 20 20 18 17 15 15 16
38 39 38 37 37 36 35 34 33 33 33 32 31 32 32 29 27 28 27 26 24 23 22 21 19 18 17 16 16 16 15 15 15 14 15 16 17 18 19 19 20 20 20 19 21 22 21 19 17 14 12 12
40 40 39 38 37 36 35 35 34 33 33 33 33 33 34 32 30 30 29 28 26 25 24 23 22 20 19 18 18 18 17 17 16 16 16 16 17 18 18 19 20 21 20 19 20 19 17 18 18 14 7 5
40 40 40 39 38 37 36 36 35 35 36 36 36 37 37 35 33 32 31 29 28 27 26 25 24 22 21 20 20 20 19 19 19 18 18 17 18 18 18 19 20 21 21 19 18 16 14 14 13 8 4 7
41 41 41 41 39 38 38 38 37 38 39 40 40 40 39 37 35 34 32 30 29 28 27 27 26 25 24 23 22 22 22 22 21 21 20 19 19 19 19 19 19 20 22 21 18 16 14 11 8 7 10 14
42 42 42 43 42 42 42 42 42 42 43 43 42 41 39 37 35 34 32 31 31 30 29 29 28 28 27 26 25 24 24 24 24 23 21 20 20 20 20 20 19 19 21 22 21 18 16 13 12 15 16 17
43 43 44 45 45 45 45 45 45 44 43 43 42 41 40 39 37 36 35 33 33 32 31 31 31 31 30 29 27 26 26 26 26 25 23 22 21 21 21 21 21 20 19 21 21 21 19 17 16 18 18 18
Wind_Direction
273 314 321 334 343 337 341 352 14 75 95 115 112 114 119 110 107 86 77 57 43 33 31 34 35 38 36 37 36 38 38 32 30 23 18 14 11 11 9 9 9 9 11 11 10 9 11 15 15 12 17 20
265 296 312 322 319 302 298 289 302 295 128 136 136 128 134 126 130 114 107 94 61 44 43 49 42 40 34 28 23 21 22 19 16 13 8 5 360 357 356 356 358 358 358 360 0 359 358 359 360 2 5 6
263 290 300 298 288 272 275 271 276 272 263 231 217 223 205 194 171 157 121 90 61 62 48 58 56 48 36 25 17 9 5 3 360 358 355 353 353 349 347 345 345 346 347 348 349 350 348 348 350 351 351 352
265 285 285 275 263 247 256 260 264 269 270 272 266 270 268 263 250 260 262 324 357 21 33 46 46 42 36 21 14 7 360 357 353 351 347 343 344 342 340 339 337 337 338 339 340 340 338 338 339 339 340 342
269 278 274 265 247 237 249 251 259 268 268 272 273 277 276 277 277 293 296 290 6 6 19 19 24 22 19 13 4 1 357 352 347 345 343 338 335 335 333 332 331 331 330 331 332 332 332 332 331 331 332 334
268 267 264 257 242 242 253 254 264 269 272 275 276 280 279 285 287 298 309 316 346 2 13 3 6 8 4 2 352 346 345 340 336 334 333 331 327 326 325 324 323 323 323 324 325 325 326 326 326 327 327 328
258 255 255 251 244 251 259 264 271 273 279 284 286 289 290 292 288 285 302 313 327 338 319 314 338 341 341 341 336 332 331 329 326 325 324 323 320 319 318 316 315 315 317 318 319 320 320 321 321 322 323 323
249 250 251 248 246 253 262 270 275 280 284 286 291 293 293 291 286 282 288 294 302 311 300 301 317 322 325 324 323 321 322 321 319 318 319 317 316 315 314 313 312 312 314 314 315 316 316 318 318 318 318 317
248 252 250 248 251 256 262 270 274 279 283 286 290 289 288 280 275 277 281 291 297 307 309 311 312 314 318 317 316 316 315 316 314 315 315 316 316 314 315 315 314 313 313 313 313 314 314 315 316 316 316 315
251 251 248 251 257 259 264 269 272 274 277 281 284 283 280 270 269 274 277 286 293 299 302 306 309 310 314 315 315 314 314 315 313 315 315 316 317 316 317 318 318 316 315 314 314 314 314 313 314 314 314 314
250 248 248 253 256 257 261 266 268 271 273 276 277 276 273 267 268 273 281 287 287 290 295 302 308 311 314 316 315 315 317 317 317 318 318 318 319 319 319 320 320 319 318 317 317 316 315 314 314 314 313 313
246 244 248 252 253 255 260 263 265 269 272 272 272 270 265 262 265 270 279 284 285 288 293 299 305 309 312 314 314 315 316 317 318 319 320 321 321 321 321 322 322 322 321 319 318 318 318 316 315 315 314 314
243 245 248 250 251 255 260 261 265 269 270 269 269 266 260 258 262 267 272 275 280 286 292 298 304 308 309 312 313 314 316 316 317 318 320 321 322 322 322 323 323 323 323 322 321 320 320 319 317 316 315 315
245 247 248 248 251 255 257 260 265 268 268 270 269 263 257 258 262 269 275 279 284 289 296 301 305 308 308 311 313 314 316 315 317 318 319 321 321 321 322 322 323 323 324 324 323 323 323 322 321 320 317 315
246 247 247 248 252 253 255 260 265 265 267 271 269 263 257 260 266 272 277 283 289 294 300 304 305 307 308 310 311 313 314 314 315 316 317 318 318 318 319 320 321 322 323 323 324 324 325 324 324 323 321 320
244 246 246 248 251 253 256 260 263 264 268 270 270 268 262 265 269 273 277 282 288 294 299 302 302 303 307 309 310 311 311 312 313 313 315 315 316 316 317 318 319 320 321 321 322 322 323 323 323 323 323 323
242 244 245 248 250 252 255 258 260 262 266 267 267 265 263 266 268 271 275 279 285 291 295 296 297 301 305 306 307 309 309 309 310 311 313 314 315 315 315 316 316 317 318 318 319 320 320 321 321 322 322 322
240 242 245 247 249 251 254 256 258 261 263 265 263 259 259 263 264 268 273 278 285 290 292 293 296 301 304 304 305 307 306 306 307 308 309 311 312 312 313 314 314 314 315 315 316 316 317 318 320 320 321 321
240 243 246 247 249 253 254 255 258 260 263 264 263 258 257 260 263 269 274 281 288 291 293 293 297 301 303 304 305 305 305 305 306 306 306 308 310 311 312 313 314 314 315 316 316 316 316 317 318 318 319 319
241 244 247 248 250 254 255 256 258 261 264 265 264 262 259 261 265 270 275 282 287 289 291 293 298 302 303 305 306 307 307 306 307 307 308 309 310 311 311 313 315 316 318 319 318 317 316 317 317 316 315 316
241 245 248 249 250 254 255 256 258 261 264 264 263 263 261 261 264 267 273 280 284 286 287 292 298 301 303 305 306 308 307 309 310 310 311 311 312 313 313 314 314 317 318 319 319 317 317 318 317 314 314 318
241 244 247 250 251 254 255 255 257 259 261 261 259 260 260 259 260 265 270 277 280 281 283 288 293 296 299 301 304 306 306 309 310 311 311 312 314 315 315 314 314 316 318 318 318 318 319 319 319 319 320 322
240 242 245 248 250 252 254 254 254 256 258 258 257 257 259 258 258 264 269 273 276 276 278 282 285 289 293 296 300 303 305 308 311 314 315 317 318 317 318 316 314 316 318 319 319 319 319 321 325 325 322 321
240 241 242 244 248 250 252 253 253 254 257 257 257 257 259 259 259 264 267 269 272 273 273 276 278 282 285 290 295 299 305 309 314 319 320 322 321 319 320 317 315 319 320 319 318 318 321 324 326 324 321 323
242 243 243 244 247 250 253 254 254 255 256 258 258 257 259 260 260 263 264 266 268 268 268 269 270 273 278 283 289 294 300 305 312 318 321 323 322 322 322 320 318 319 320 319 317 317 318 320 322 324 325 320
246 247 248 249 250 253 255 257 257 258 259 260 259 258 259 260 259 261 262 263 264 264 264 265 265 267 272 278 283 288 293 297 304 310 314 319 322 323 325 324 321 320 321 320 319 320 318 318 321 324 322 304
248 250 251 252 252 254 255 257 259 260 261 260 258 258 258 258 257 259 260 259 260 261 261 261 263 264 267 273 277 281 286 290 295 300 306 313 319 323 324 323 322 321 323 321 320 321 319 320 322 323 320 266
249 250 251 253 253 254 255 257 258 259 259 258 257 255 256 257 256 257 258 258 258 259 259 259 261 262 264 269 272 276 280 284 289 294 299 308 315 318 320 321 320 320 320 318 318 316 312 317 318 312 279 245
249 248 249 250 249 249 250 251 251 251 253 254 254 255 256 257 256 256 257 257 257 258 258 257 259 262 263 265 268 272 277 281 285 290 295 302 308 313 316 317 316 315 315 314 313 310 306 306 291 269 269 276
251 249 249 248 247 246 246 246 246 247 250 252 254 258 259 259 258 257 257 256 256 257 257 256 258 260 262 263 265 269 274 278 282 286 290 295 300 305 309 311 311 311 311 310 309 306 300 292 280 279 283 286
252 251 250 249 249 250 249 249 250 251 251 251 254 257 258 259 259 259 258 256 256 256 255 255 256 258 260 262 263 265 267 272 277 281 283 287 292 296 301 304 306 308 306 304 306 305 299 292 285 283 284 283